[[{"header":{"parameterUnit":"m.s-1","parameterCategory":1,"la1":30.2991,"la2":30.254,"lo1":-89.0895,"lo2":-89.0444,"dx":0.0017,"dy":0.0017,"nx":28,"ny":28,"refTime":"2022-12-16T15:00:00:Z","depth":0,"parameterNumber":2,"parameterNumberName":"U-component_of_WINDS"},"data":[0,0,0,0,0,0,0,0,0,0,0,0,0,0,0,0,0,0,0,0,0,0,0,0,0,0,0,0,0,0,0,0,0,0,0,0,0,0,0,0,0,0,0,0,0,0,0,0,0,0,0,0,0,0,0,0,0,0,-0.5215,-0.5215,0,-0.5213,-0.5213,-0.5213,-0.5169,-0.5168,-0.5167,-0.5165,-0.5165,-0.5166,-0.5167,0,0,0,0,0,0,0,0,0,0,0,0,0,-0.5183,-0.5184,-0.5215,-0.5215,-0.5215,-0.5213,-0.5213,-0.5213,-0.5169,-0.5168,-0.5166,-0.5165,-0.5165,-0.5166,-0.5168,0,0,0,0,0,0,0,0,0,0,0,0,0,-0.5191,-0.5184,-0.5215,-0.5193,-0.5191,-0.5213,-0.5213,-0.5213,-0.5169,-0.5168,-0.5166,-0.5164,-0.5165,-0.5166,-0.5168,-0.5212,0,0,-0.5173,-0.5173,0,0,0,0,0,0,0,0,-0.519,-0.5192,-0.5196,-0.5195,-0.5192,-0.5189,-0.5201,-0.5213,-0.517,-0.5178,-0.5165,-0.5163,-0.5175,-0.5176,-0.5179,-0.5212,-0.5212,-0.5173,-0.5174,-0.5174,-0.5175,0,0,0,0,0,0,0,-0.519,-0.5192,-0.5214,-0.5197,-0.5194,-0.5184,-0.5183,-0.5203,-0.5186,-0.5177,-0.5174,-0.5174,-0.5174,-0.5178,-0.5179,-0.5212,-0.5173,-0.5174,-0.5175,-0.5176,-0.5279,-0.528,0,0,0,0,0,0,-0.5192,-0.5192,-0.5215,-0.5214,-0.5187,-0.5186,-0.5185,-0.5192,-0.5186,-0.5183,-0.5175,-0.5172,-0.5176,-0.5177,-0.5178,-0.5229,-0.5174,-0.5176,-0.5177,-0.5277,-0.5279,-0.5281,0,0,0,0,0,0,-0.5192,-0.5195,-0.5215,-0.5202,-0.5204,-0.5188,-0.5197,-0.5193,-0.5197,-0.5184,-0.5181,-0.5182,-0.5174,-0.5176,-0.5203,-0.5228,-0.5177,-0.5178,-0.5275,-0.5278,-0.528,-0.533,0,0,0,0,0,0,-0.5191,-0.5195,-0.5211,-0.5203,-0.5205,-0.5239,-0.5198,-0.5194,-0.5199,-0.5195,-0.519,-0.5188,-0.5173,-0.5201,-0.5205,-0.5229,-0.5179,-0.5273,-0.5276,-0.5279,-0.5326,-0.5334,-0.5341,0,0,0,0,0,-0.519,-0.5226,-0.5212,-0.5215,-0.5225,-0.5241,-0.5242,-0.5224,-0.5202,-0.5218,-0.521,-0.5188,-0.5224,-0.5204,-0.5208,-0.5234,-0.5271,-0.5275,-0.5279,-0.5323,-0.5333,-0.5341,0,0,0,0,0,0,-0.524,-0.5225,-0.5209,-0.5244,-0.5244,-0.5233,-0.5254,-0.5235,-0.5242,-0.5237,-0.5215,-0.5214,-0.5245,-0.5241,-0.5219,-0.5275,-0.5244,-0.5249,-0.5276,-0.5285,-0.5292,-0.5293,-0.5181,0,0,0,0,0,-0.5254,-0.5268,-0.5254,-0.5286,-0.5287,-0.527,-0.5277,-0.5262,-0.5262,-0.5262,-0.5256,-0.5257,-0.5268,-0.5276,-0.5286,-0.5325,-0.5323,-0.5344,-0.5352,-0.5358,-0.5363,-0.5382,-0.5391,-0.5294,-0.5294,-0.5294,0,0,-0.5285,-0.5279,-0.5289,-0.5296,-0.5294,-0.5309,-0.5271,-0.5289,-0.53,-0.5265,-0.529,-0.5285,-0.5284,-0.5317,-0.5332,-0.5316,-0.5389,-0.5363,-0.5368,-0.537,-0.5387,-0.5397,-0.5405,-0.5297,-0.5296,-0.5296,0,0,-0.5349,-0.5346,-0.5372,-0.537,-0.5367,-0.5356,-0.5362,-0.5354,-0.5349,-0.5373,-0.5347,-0.536,-0.5381,-0.5381,-0.5384,-0.5446,-0.5426,-0.545,-0.5489,-0.5508,-0.5516,-0.5523,-0.5545,-0.5553,-0.5454,-0.5454,-0.5454,0,-0.5389,-0.541,-0.5387,-0.5406,-0.541,-0.5377,-0.5403,-0.5403,-0.5405,-0.5408,-0.539,-0.5414,-0.5411,-0.5443,-0.5458,-0.5462,-0.5468,-0.5451,-0.5516,-0.5523,-0.5529,-0.555,-0.5558,-0.5457,-0.5457,-0.5457,-0.5456,0,-0.5458,-0.5473,-0.5494,-0.5495,-0.55,-0.5523,-0.5504,-0.5513,-0.5497,-0.5487,-0.5512,-0.5507,-0.5515,-0.5521,-0.5507,-0.5551,-0.5541,-0.552,-0.5489,-0.5541,-0.5561,-0.5568,-0.5461,-0.546,-0.546,-0.5459,0,0,-0.5556,-0.5542,-0.555,-0.5549,-0.5543,-0.5554,-0.5575,-0.5581,-0.5589,-0.559,-0.5607,-0.5624,-0.5604,-0.5607,-0.5592,-0.5609,-0.5658,-0.5585,-0.5585,-0.5599,-0.5706,-0.5722,-0.5732,-0.5644,-0.5645,-0.5647,-0.5706,0,-0.5618,-0.5652,-0.5631,-0.5668,-0.5681,-0.565,-0.5667,-0.5665,-0.5656,-0.5667,-0.5657,-0.5669,-0.5641,-0.5643,-0.5658,-0.5649,-0.5679,-0.5644,-0.566,-0.5661,-0.5662,-0.5742,-0.576,-0.5816,-0.5713,-0.5715,-0.5715,0,-0.5695,-0.5699,-0.5737,-0.5726,-0.5731,-0.5747,-0.5751,-0.5761,-0.5758,-0.575,-0.5752,-0.5733,-0.5752,-0.572,-0.5746,-0.5723,-0.5728,-0.5724,-0.5726,-0.5727,-0.5692,-0.5746,-0.5834,-0.5843,-0.5727,-0.5726,-0.5725,0,-0.5763,-0.5777,-0.5801,-0.5801,-0.579,-0.5802,-0.5798,-0.5793,-0.5797,-0.5801,-0.5803,-0.5809,-0.5813,-0.5818,-0.58,-0.5778,-0.5828,-0.5795,-0.5823,-0.5823,-0.5836,-0.5836,-0.5926,-0.5838,-0.5838,-0.5838,-0.5838,0,-0.5835,-0.586,-0.5831,-0.5846,-0.5872,-0.5848,-0.5875,-0.5867,-0.5863,-0.5876,-0.5849,-0.5862,-0.5837,-0.5847,-0.5834,-0.5857,-0.5859,-0.5853,-0.585,-0.5856,-0.5857,-0.586,-0.5856,-0.584,-0.5839,-0.5839,-0.5839,0,-0.5916,-0.5897,-0.5922,-0.5908,-0.5905,-0.5925,-0.5913,-0.5927,-0.5915,-0.5932,-0.5934,-0.5916,-0.5927,-0.5909,-0.5918,-0.5908,-0.5941,-0.5931,-0.5942,-0.5939,-0.5968,-0.5966,-0.6065,-0.6076,-0.598,-0.5981,-0.5982,0,-0.5964,-0.5982,-0.5969,-0.5975,-0.5972,-0.5983,-0.5987,-0.5963,-0.5969,-0.5965,-0.5979,-0.5987,-0.5992,-0.6011,-0.5999,-0.6005,-0.5995,-0.6029,-0.5996,-0.6002,-0.5996,-0.5995,-0.5997,-0.6036,-0.6037,-0.6038,-0.6039,0,-0.605,-0.604,-0.6046,-0.6049,-0.6055,-0.6056,-0.6056,-0.6063,-0.6037,-0.6045,-0.6055,-0.6059,-0.6066,-0.6075,-0.6078,-0.6074,-0.6052,-0.6049,-0.6056,-0.6064,-0.6069,-0.6067,-0.5961,-0.6047,-0.6047,-0.6046,-0.6046,-0.6045,-0.6116,-0.613,-0.6123,-0.6131,-0.6127,-0.6127,-0.6139,-0.6127,-0.6135,-0.6139,-0.6124,-0.6137,-0.6132,-0.6134,-0.6132,-0.6141,-0.6126,-0.6136,-0.6139,-0.6142,-0.6147,-0.6067,-0.6142,-0.6142,-0.6141,-0.6141,-0.6141,0,-0.6202,-0.6195,-0.6202,-0.6201,-0.6208,-0.6185,-0.6183,-0.619,-0.6201,-0.6198,-0.6203,-0.6213,-0.6221,-0.6208,-0.6213,-0.6224,-0.6214,-0.6226,-0.6225,-0.6225,-0.616,-0.6153,-0.6234,-0.6234,-0.6234,-0.6234,-0.6234,-0.6234,-0.6247,-0.6269,-0.6257,-0.6277,-0.627,-0.6282,-0.6283,-0.6282,-0.6279,-0.6292,-0.6297,-0.6288,-0.6281,-0.6285,-0.6291,-0.6287,-0.629,-0.6306,-0.6299,-0.6238,-0.6229,-0.6221,-0.6215,-0.6307,-0.6307,-0.6363,-0.6363,-0.6364]},{"header":{"parameterUnit":"m.s-1","parameterCategory":1,"la1":30.2991,"la2":30.254,"lo1":-89.0895,"lo2":-89.0444,"dx":0.0017,"dy":0.0017,"nx":28,"ny":28,"refTime":"2022-12-16T15:00:00:Z","depth":0,"parameterNumber":3,"parameterNumberName":"V-component_of_WINDS"},"data":[0,0,0,0,0,0,0,0,0,0,0,0,0,0,0,0,0,0,0,0,0,0,0,0,0,0,0,0,0,0,0,0,0,0,0,0,0,0,0,0,0,0,0,0,0,0,0,0,0,0,0,0,0,0,0,0,0,0,-6.5806,-6.5807,0,-6.5879,-6.588,-6.5881,-6.5802,-6.5799,-6.5796,-6.5793,-6.5862,-6.5867,-6.5871,0,0,0,0,0,0,0,0,0,0,0,0,0,-6.5592,-6.5597,-6.5806,-6.5807,-6.5808,-6.5879,-6.588,-6.5881,-6.5802,-6.5799,-6.5795,-6.5792,-6.5861,-6.5866,-6.5872,0,0,0,0,0,0,0,0,0,0,0,0,0,-6.5677,-6.5598,-6.5806,-6.5778,-6.5776,-6.5879,-6.588,-6.5881,-6.5803,-6.5799,-6.5794,-6.579,-6.5859,-6.5866,-6.5872,-6.6006,0,0,-6.5894,-6.5897,0,0,0,0,0,0,0,0,-6.5672,-6.5685,-6.5781,-6.578,-6.5778,-6.5827,-6.583,-6.5923,-6.5804,-6.5793,-6.5793,-6.5788,-6.5854,-6.5861,-6.5884,-6.6009,-6.6012,-6.5894,-6.5899,-6.5902,-6.5904,0,0,0,0,0,0,0,-6.5667,-6.5681,-6.5835,-6.5782,-6.578,-6.5759,-6.5766,-6.5847,-6.5847,-6.5793,-6.5788,-6.5798,-6.5852,-6.5878,-6.5885,-6.6013,-6.5894,-6.59,-6.5905,-6.5907,-6.625,-6.6254,0,0,0,0,0,0,-6.5665,-6.5677,-6.5833,-6.5837,-6.5713,-6.5767,-6.5774,-6.5816,-6.5846,-6.5847,-6.5802,-6.5794,-6.5868,-6.5877,-6.5887,-6.6045,-6.5902,-6.5908,-6.5912,-6.6245,-6.6251,-6.6256,0,0,0,0,0,0,-6.5661,-6.568,-6.583,-6.5756,-6.5773,-6.5775,-6.5822,-6.582,-6.5845,-6.5853,-6.5852,-6.5828,-6.5865,-6.5878,-6.5977,-6.6046,-6.5911,-6.5918,-6.6239,-6.6247,-6.6253,-6.6362,0,0,0,0,0,0,-6.5655,-6.5678,-6.5731,-6.5758,-6.5778,-6.592,-6.5826,-6.5824,-6.5858,-6.5849,-6.5877,-6.5878,-6.5862,-6.5967,-6.5984,-6.6053,-6.5923,-6.6233,-6.6242,-6.6251,-6.6352,-6.6372,-6.6389,0,0,0,0,0,-6.5647,-6.5757,-6.5734,-6.5753,-6.5843,-6.5925,-6.5936,-6.5917,-6.5864,-6.5915,-6.592,-6.5877,-6.6036,-6.5978,-6.5996,-6.6069,-6.6228,-6.624,-6.625,-6.6343,-6.6368,-6.6388,0,0,0,0,0,0,-6.5736,-6.576,-6.5734,-6.5857,-6.589,-6.5911,-6.5975,-6.5944,-6.5991,-6.598,-6.5953,-6.596,-6.6066,-6.6077,-6.6012,-6.6199,-6.6123,-6.6138,-6.6188,-6.6211,-6.6229,-6.6224,-6.5929,0,0,0,0,0,-6.5771,-6.5837,-6.5853,-6.5959,-6.5977,-6.5974,-6.6008,-6.5992,-6.6024,-6.6036,-6.6048,-6.608,-6.6136,-6.6174,-6.6227,-6.6353,-6.6357,-6.6412,-6.643,-6.6445,-6.6459,-6.6525,-6.6549,-6.6292,-6.6292,-6.6292,0,0,-6.5841,-6.5862,-6.5905,-6.5978,-6.6001,-6.6068,-6.5986,-6.606,-6.6109,-6.6047,-6.6142,-6.6152,-6.6185,-6.6298,-6.6349,-6.6311,-6.6531,-6.6459,-6.6472,-6.6476,-6.6539,-6.6563,-6.6585,-6.63,-6.6298,-6.6297,0,0,-6.6004,-6.6027,-6.6118,-6.6144,-6.6181,-6.6178,-6.62,-6.6226,-6.6231,-6.6327,-6.6281,-6.6338,-6.6437,-6.6462,-6.6487,-6.666,-6.6621,-6.6678,-6.6774,-6.6839,-6.6859,-6.6877,-6.6937,-6.6959,-6.6691,-6.6691,-6.6691,0,-6.6086,-6.6188,-6.6168,-6.6246,-6.6279,-6.6228,-6.6318,-6.6343,-6.6395,-6.6417,-6.6375,-6.6498,-6.6516,-6.6634,-6.6676,-6.6699,-6.6722,-6.6674,-6.6858,-6.6876,-6.6892,-6.6949,-6.6972,-6.6698,-6.6697,-6.6696,-6.6696,0,-6.6286,-6.6357,-6.6426,-6.6479,-6.6519,-6.6603,-6.6594,-6.6637,-6.6617,-6.6618,-6.6714,-6.6735,-6.6791,-6.6817,-6.6798,-6.6933,-6.6908,-6.6863,-6.6786,-6.6923,-6.6977,-6.6998,-6.6707,-6.6705,-6.6703,-6.6701,0,0,-6.6507,-6.6549,-6.6574,-6.6598,-6.6635,-6.6688,-6.6769,-6.6826,-6.6862,-6.6899,-6.6965,-6.705,-6.7008,-6.7037,-6.702,-6.7077,-6.7211,-6.7024,-6.7024,-6.7057,-6.7359,-6.7393,-6.7419,-6.7186,-6.719,-6.7193,-6.7356,0,-6.667,-6.6812,-6.6797,-6.6932,-6.6996,-6.6949,-6.7018,-6.7048,-6.7051,-6.7104,-6.7106,-6.7167,-6.7107,-6.7125,-6.7179,-6.7183,-6.7271,-6.7171,-6.7245,-6.7248,-6.7238,-6.7447,-6.7483,-6.7636,-6.7377,-6.7381,-6.7383,0,-6.6879,-6.6926,-6.7068,-6.7095,-6.7122,-6.7185,-6.7235,-6.7288,-6.7319,-6.7317,-6.735,-6.7322,-6.7401,-6.7324,-6.7431,-6.7364,-6.7393,-6.7399,-6.7405,-6.741,-6.7324,-6.7457,-6.7684,-6.7707,-6.7416,-6.7413,-6.7411,0,-6.7025,-6.7123,-6.7221,-6.7242,-6.7276,-6.7322,-6.7338,-6.7365,-6.74,-6.7443,-6.7465,-6.7516,-6.7544,-6.7583,-6.7569,-6.7514,-6.7679,-6.76,-6.7678,-6.7678,-6.7714,-6.7712,-6.7948,-6.7735,-6.7734,-6.7734,-6.7733,0,-6.7208,-6.7296,-6.7286,-6.7346,-6.7443,-6.7424,-6.752,-6.753,-6.7554,-6.7614,-6.7575,-6.7631,-6.7609,-6.7664,-6.7653,-6.7743,-6.7756,-6.7755,-6.7751,-6.7758,-6.7758,-6.7776,-6.7765,-6.774,-6.7739,-6.7737,-6.7736,0,-6.7386,-6.7384,-6.7487,-6.7511,-6.752,-6.759,-6.761,-6.7665,-6.7665,-6.7741,-6.7757,-6.7757,-6.7818,-6.7809,-6.7877,-6.7869,-6.7981,-6.7964,-6.7971,-6.7967,-6.8045,-6.8037,-6.83,-6.8333,-6.8099,-6.8102,-6.8103,0,-6.7503,-6.7571,-6.7603,-6.7641,-6.7661,-6.7723,-6.7758,-6.7741,-6.7779,-6.7821,-6.787,-6.7929,-6.7975,-6.8076,-6.808,-6.8131,-6.8115,-6.8204,-6.8122,-6.8127,-6.8115,-6.8111,-6.8117,-6.8219,-6.8222,-6.8224,-6.8226,0,-6.7711,-6.7706,-6.776,-6.7814,-6.7859,-6.79,-6.7936,-6.7969,-6.7955,-6.8,-6.8064,-6.81,-6.817,-6.8228,-6.8276,-6.829,-6.8255,-6.8252,-6.8272,-6.828,-6.8281,-6.828,-6.8014,-6.8246,-6.8244,-6.8242,-6.8241,-6.824,-6.7861,-6.7919,-6.7951,-6.8012,-6.8038,-6.8074,-6.8127,-6.8134,-6.8188,-6.8245,-6.8231,-6.8303,-6.8331,-6.8393,-6.8412,-6.8467,-6.8433,-6.8463,-6.8471,-6.8478,-6.8487,-6.8273,-6.8475,-6.8475,-6.8474,-6.8474,-6.8473,0,-6.8066,-6.8084,-6.8141,-6.8195,-6.8243,-6.8209,-6.8247,-6.8289,-6.8353,-6.8384,-6.8431,-6.8503,-6.8559,-6.8569,-6.8621,-6.8663,-6.8648,-6.8677,-6.8673,-6.8677,-6.8514,-6.8491,-6.8688,-6.8688,-6.8688,-6.8688,-6.8688,-6.8688,-6.8178,-6.8273,-6.8272,-6.8379,-6.8396,-6.8468,-6.8493,-6.8525,-6.8549,-6.8633,-6.868,-6.8686,-6.8708,-6.8762,-6.8811,-6.8812,-6.8833,-6.8868,-6.8862,-6.871,-6.8689,-6.8668,-6.8646,-6.8873,-6.8873,-6.902,-6.9022,-6.9023]}]]